Location: Fredericton
(45.9636°N, 66.6431°W)
Time: 10:20:22
(UTC-03:00)

Envisat - Pass Details

Date: 28 January 2022
Orbit: 764 x 765 km, 98.2° (Epoch: 17 May)

Event Time Altitude Azimuth Distance (km) Brightness Sun altitude
Rises 05:43:41 0° 10° (N) 3,242 6.3 -22.5°
Reaches altitude 10° 05:46:01 10° 8° (N) 2,312 5.5 -22.1°
Maximum altitude 05:51:03 65° 288° (WNW) 839 2.9 -21.3°
Drops below altitude 10° 05:56:04 10° 207° (SSW) 2,297 5.3 -20.4°
Sets 05:58:22 0° 204° (SSW) 3,219 6.0 -20.0°
